Change the Weather History Date:

Wednesday, February 12, 2014

  Actual Average Record
Temperature  
Mean Temperature 24 °F 36 °F  
Max Temperature 38 °F 47 °F 81 °F (1962)
Min Temperature 10 °F 25 °F -22 °F (1899)
Degree Days  
Heating Degree Days 41 29  
Month to date heating degree days 551 361  
Since 1 July heating degree days 3525 3221  
Cooling Degree Days 0 0  
Month to date cooling degree days 0 0  
Year to date cooling degree days 0 0  
Moisture  
Dew Point 20 °F    
Average Humidity 81    
Maximum Humidity 92    
Minimum Humidity 70    
Precipitation  
Precipitation 0.00 in 0.05 in 1.25 in (1978)
Month to date precipitation 0.81 0.46  
Year to date precipitation 0.94 1.29  
Snow  
Snow 0.00 in 0.20 in 1.30 in (1948)
Month to date snowfall 13.0 1.7  
Since 1 July snowfall 19.4 10.9  
Snow Depth 5.00 in    
Sea Level Pressure  
Sea Level Pressure 30.12 in    
Wind  
Wind Speed 7 mph (West)    
Max Wind Speed 17 mph    
Max Gust Speed 18 mph    
Visibility 8 miles    
Events      
T = Trace of Precipitation, MM = Missing Value Source: NWS Daily Summary

Daily Weather History Graph

Daily Weather History Graph

Search for Another Location

Airport or City:

Trip Planner

Search our weather history database for the weather conditions in past years. The results will help you decide how hot, cold, wet, or windy it might be!

Date:

Astronomy

Feb. 12, 2014 Rise Set
Actual Time 7:22 AM CST 6:05 PM CST
Civil Twilight 6:55 AM CST 6:32 PM CST
Nautical Twilight 6:24 AM CST 7:03 PM CST
Astronomical Twilight 5:54 AM CST 7:34 PM CST
Moon 4:21 PM CST (2/12) 5:39 AM CST (2/12)
Length of Visible Light 11h 37m
Length of Day
10h 43m
Waxing Gibbous, 95% of the Moon is Illuminated
Feb 12
Waxing Gibbous
Feb 14
Full
Feb 22
Last Quarter
Mar 1
New
Mar 8
First Quarter

Hourly Weather History & Observations

Time (CST) Temp. Windchill Dew Point Humidity Pressure Visibility Wind Dir Wind Speed Gust Speed Precip Events Conditions
12:53 AM 10.9 °F 4.7 °F 5.0 °F 77% 30.25 in 8.0 mi SSW 3.5 mph - N/A   Mostly Cloudy
1:53 AM 10.9 °F 2.9 °F 6.1 °F 81% 30.24 in 8.0 mi South 4.6 mph - N/A   Mostly Cloudy
2:53 AM 10.0 °F -1.9 °F 5.0 °F 80% 30.21 in 7.0 mi South 8.1 mph - N/A   Mostly Cloudy
3:53 AM 12.0 °F 4.1 °F 6.1 °F 77% 30.19 in 5.0 mi South 4.6 mph - N/A   Haze
4:53 AM 12.0 °F 2.7 °F 7.0 °F 80% 30.19 in 7.0 mi SSW 5.8 mph - N/A   Mostly Cloudy
5:53 AM 14.0 °F 3.9 °F 9.0 °F 80% 30.17 in 7.0 mi South 6.9 mph - N/A   Overcast
6:53 AM 16.0 °F 8.8 °F 10.0 °F 77% 30.18 in 6.0 mi SSW 4.6 mph - N/A   Haze
7:53 AM 15.1 °F 4.2 °F 10.0 °F 80% 30.18 in 7.0 mi SW 8.1 mph - N/A   Scattered Clouds
8:53 AM 19.9 °F 10.1 °F 14.0 °F 78% 30.17 in 7.0 mi WSW 8.1 mph - N/A   Partly Cloudy
9:53 AM 25.0 °F 17.1 °F 18.0 °F 75% 30.16 in 8.0 mi WNW 6.9 mph - N/A   Scattered Clouds
10:47 AM 32.0 °F 23.6 °F 23.0 °F 69% 30.11 in 9.0 mi NNW 10.4 mph - N/A   Mostly Cloudy
10:53 AM 32.0 °F 22.5 °F 24.1 °F 73% 30.16 in 9.0 mi NNW 12.7 mph - N/A   Mostly Cloudy
11:53 AM 35.1 °F 27.4 °F 26.1 °F 70% 30.14 in 10.0 mi NNW 10.4 mph - N/A   Overcast
12:53 PM 37.0 °F 29.8 °F 28.9 °F 73% 30.11 in 10.0 mi North 10.4 mph 19.6 mph N/A   Overcast
1:53 PM 37.0 °F 29.3 °F 28.9 °F 73% 30.11 in 10.0 mi North 11.5 mph - N/A   Overcast
2:46 PM 37.4 °F 28.5 °F 28.4 °F 70% 30.05 in 10.0 mi NNW 15.0 mph - N/A   Mostly Cloudy
2:53 PM 37.9 °F 30.0 °F 28.9 °F 70% 30.10 in 10.0 mi North 12.7 mph - N/A   Mostly Cloudy
3:53 PM 37.9 °F 32.1 °F 28.9 °F 70% 30.10 in 10.0 mi NNW 8.1 mph - N/A   Mostly Cloudy
4:53 PM 36.0 °F 29.0 °F 27.0 °F 70% 30.10 in 9.0 mi North 9.2 mph - N/A   Mostly Cloudy
5:53 PM 35.1 °F 31.0 °F 27.0 °F 72% 30.08 in 8.0 mi North 4.6 mph - N/A   Mostly Cloudy
6:53 PM 33.1 °F - 27.0 °F 78% 30.08 in 9.0 mi Calm Calm - N/A   Mostly Cloudy
7:53 PM 30.0 °F 26.5 °F 27.0 °F 88% 30.08 in 6.0 mi SW 3.5 mph - N/A   Mostly Cloudy
8:53 PM 30.9 °F - 27.0 °F 85% 30.07 in 7.0 mi Calm Calm - N/A   Overcast
9:53 PM 30.0 °F 26.5 °F 27.0 °F 88% 30.04 in 7.0 mi South 3.5 mph - N/A   Mostly Cloudy
10:53 PM 28.9 °F 22.8 °F 26.1 °F 89% 30.01 in 6.0 mi South 5.8 mph - N/A   Mostly Cloudy
11:53 PM 30.0 °F 24.1 °F 27.0 °F 88% 30.00 in 7.0 mi SW 5.8 mph - N/A   Overcast